Melbourne Airport, Australia

8:29 AM AEST on May 26, 2017 (GMT +1000)
Melbourne International

Weather History for YMML - March, 2013

Change the Weather History Date:

Saturday, March 23, 2013

  Actual Average Record
Temperature  
Mean Temperature 66 °F -  
Max Temperature 77 °F 67 °F 96 °F (2007)
Min Temperature 54 °F 49 °F 46 °F (1999)
Growing Degree Days 16 (Base 50)    
Moisture  
Dew Point 48 °F    
Average Humidity 53    
Maximum Humidity 77    
Minimum Humidity 25    
Precipitation  
Precipitation 0.01 in 0.06 in - ()
Sea Level Pressure  
Sea Level Pressure 29.96 in    
Wind  
Wind Speed 12 mph ()    
Max Wind Speed 22 mph    
Max Gust Speed 30 mph    
Visibility 8.4 miles    
Events      
Averages and records for this station are not official NWS values.
T = Trace of Precipitation, MM = Missing Value Source: Averaged Metar Reports

Daily Weather History Graph

Daily Weather History Graph

Search for Another Location

Airport or City:

Trip Planner

Search our weather history database for the weather conditions in past years. The results will help you decide how hot, cold, wet, or windy it might be!

Date:

Astronomy

Mar. 23, 2013 Rise Set
Actual Time 7:26 AM AEDT 7:27 PM AEDT
Civil Twilight 6:59 AM AEDT 7:53 PM AEDT
Nautical Twilight 6:29 AM AEDT 8:24 PM AEDT
Astronomical Twilight 5:58 AM AEDT 8:55 PM AEDT
Moon 4:47 PM AEDT (3/23) 2:56 AM AEDT (3/23)
Length of Visible Light 12h 54m
Length of Day
12h 01m
Waxing Gibbous, 80% of the Moon is Illuminated
Mar 23
Waxing Gibbous
Mar 27
Full
Apr 3
Last Quarter
Apr 10
New
Apr 18
First Quarter

Hourly Weather History & Observations

Time (AEDT) Temp. Dew Point Humidity Pressure Visibility Wind Dir Wind Speed Gust Speed Precip Events Conditions
12:00 AM 59 °F 46 °F 52% 29.96 in 19 mi NNW 9.2 mph - -   Partly Cloudy
12:00 AM 59.0 °F 46.4 °F 63% 29.95 in - NNW 9.2 mph - N/A   Clear
12:30 AM 59.0 °F 46.4 °F 63% 29.95 in - NNW 10.4 mph - N/A   Clear
1:00 AM 59.0 °F 46.4 °F 63% 29.98 in - NNW 10.4 mph - N/A   Clear
1:30 AM 59.0 °F 46.4 °F 63% 29.95 in - NNW 8.1 mph - N/A   Clear
2:00 AM 58 °F 46 °F 55% 29.96 in - NNW 8.1 mph - -  
2:00 AM 59.0 °F 46.4 °F 63% 29.95 in - NNW 8.1 mph - N/A   Clear
2:30 AM 59.0 °F 46.4 °F 63% 29.95 in - NNW 10.4 mph - N/A   Clear
3:00 AM 58 °F 46 °F 54% 29.96 in 19 mi North 12.7 mph - -   Partly Cloudy
3:00 AM 59.0 °F 46.4 °F 63% 29.95 in - North 12.7 mph - N/A   Clear
3:30 AM 57.2 °F 46.4 °F 67% 29.95 in - NNW 12.7 mph - N/A   Clear
4:00 AM 57.2 °F 46.4 °F 67% 29.95 in - NNW 11.5 mph - N/A   Clear
4:30 AM 57.2 °F 46.4 °F 67% 29.95 in - North 9.2 mph - N/A   Clear
5:00 AM 55 °F 48 °F 70% 29.96 in - North 10.4 mph - -  
5:00 AM 55.4 °F 48.2 °F 77% 29.95 in - North 10.4 mph - N/A   Clear
5:30 AM 57.2 °F 48.2 °F 72% 29.95 in - North 9.2 mph - N/A   Clear
6:00 AM 55 °F 48 °F 70% 29.97 in 19 mi North 9.2 mph - -   Partly Cloudy
6:00 AM 55.4 °F 48.2 °F 77% 29.98 in - North 9.2 mph - N/A   Clear
6:30 AM 57.2 °F 48.2 °F 72% 29.98 in - North 11.5 mph - N/A   Clear
7:00 AM 59.0 °F 48.2 °F 67% 29.98 in - North 11.5 mph - N/A   Clear
7:30 AM 59.0 °F 48.2 °F 67% 29.98 in - North 15.0 mph - N/A   Clear
8:00 AM 59 °F 48 °F 57% 29.98 in - North 15.0 mph - -  
8:00 AM 59.0 °F 48.2 °F 67% 29.98 in - North 15.0 mph - N/A   Clear
8:30 AM 59.0 °F 48.2 °F 67% 29.98 in - North 17.3 mph - N/A   Clear
9:00 AM 61 °F 49 °F 54% 30.00 in 22 mi North 17.3 mph - -   Partly Cloudy
9:00 AM 60.8 °F 48.2 °F 63% 29.98 in 6.2 mi North 17.3 mph - N/A   Mostly Cloudy
9:30 AM 62.6 °F 50.0 °F 63% 29.98 in 6.2 mi North 17.3 mph - N/A   Mostly Cloudy
10:00 AM 60.8 °F 50.0 °F 68% 30.01 in 6.2 mi North 20.7 mph - N/A   Mostly Cloudy
10:30 AM 64.4 °F 50.0 °F 59% 30.01 in 6.2 mi North 20.7 mph - N/A   Scattered Clouds
11:00 AM 67 °F 50 °F 45% 30.00 in - North 19.6 mph - -  
11:00 AM 68.0 °F 50.0 °F 52% 30.01 in 6.2 mi North 19.6 mph - N/A   Mostly Cloudy
11:30 AM 68.0 °F 50.0 °F 52% 30.01 in 6.2 mi NW 16.1 mph - N/A   Mostly Cloudy
12:00 PM 70 °F 49 °F 37% 30.01 in 22 mi NW 17.3 mph - -   Partly Cloudy
12:00 PM 69.8 °F 50.0 °F 49% 30.01 in 6.2 mi NW 17.3 mph - N/A   Mostly Cloudy
12:30 PM 71.6 °F 50.0 °F 46% 30.01 in 6.2 mi NW 20.7 mph - N/A   Scattered Clouds
1:00 PM 71.6 °F 48.2 °F 43% 29.98 in 6.2 mi WNW 21.9 mph - N/A   Scattered Clouds
1:42 PM 73.4 °F 48.2 °F 41% 29.98 in 6.2 mi NW 18.4 mph 29.9 mph N/A   Scattered Clouds
2:00 PM 74 °F 48 °F 29% 29.96 in - NW 19.6 mph - -  
2:00 PM 73.4 °F 48.2 °F 41% 29.95 in 6.2 mi NW 19.6 mph - N/A   Scattered Clouds
2:08 PM 71.6 °F 48.2 °F 43% 29.95 in 6.2 mi NW 17.3 mph 28.8 mph N/A   Scattered Clouds
2:30 PM 71.6 °F 48.2 °F 43% 29.95 in 6.2 mi NW 19.6 mph - N/A   Scattered Clouds
2:52 PM 75.2 °F 46.4 °F 36% 29.95 in 6.2 mi NW 17.3 mph 28.8 mph N/A   Scattered Clouds
3:00 PM 75 °F 46 °F 25% 29.95 in 22 mi NW 20.7 mph - -   Partly Cloudy
3:00 PM 75.2 °F 46.4 °F 36% 29.95 in 6.2 mi NW 20.7 mph - N/A   Scattered Clouds
3:30 PM 75.2 °F 46.4 °F 36% 29.95 in 6.2 mi NW 17.3 mph - N/A   Scattered Clouds
4:00 PM 77.0 °F 48.2 °F 36% 29.95 in 6.2 mi NW 15.0 mph - N/A   Mostly Cloudy
4:30 PM 73.4 °F 46.4 °F 38% 29.95 in 6.2 mi WNW 16.1 mph - N/A   Mostly Cloudy
5:00 PM 73 °F 47 °F 29% 29.95 in - NW 15.0 mph - -  
5:00 PM 73.4 °F 46.4 °F 38% 29.95 in 6.2 mi NW 15.0 mph - N/A   Mostly Cloudy
5:30 PM 73.4 °F 48.2 °F 41% 29.95 in - NW 13.8 mph - N/A   Clear
6:00 PM 73 °F 48 °F 30% 29.95 in 22 mi WNW 18.4 mph - -   Partly Cloudy
6:00 PM 73.4 °F 48.2 °F 41% 29.95 in - WNW 18.4 mph - N/A   Clear
6:30 PM 71.6 °F 48.2 °F 43% 29.95 in - NW 15.0 mph - N/A   Clear
7:00 PM 71.6 °F 48.2 °F 43% 29.95 in - NNW 12.7 mph - N/A   Clear
7:30 PM 69.8 °F 48.2 °F 46% 29.95 in - NNW 10.4 mph - N/A   Clear
8:00 PM 67 °F 50 °F 44% 29.96 in - North 9.2 mph - -  
8:00 PM 68.0 °F 50.0 °F 52% 29.95 in - North 9.2 mph - N/A   Clear
8:30 PM 66.2 °F 50.0 °F 56% 29.95 in - North 10.4 mph - N/A   Clear
9:00 PM 65 °F 50 °F 48% 29.96 in 19 mi NNW 6.9 mph - -   Partly Cloudy
9:00 PM 66.2 °F 50.0 °F 56% 29.95 in - NNW 6.9 mph - N/A   Clear
9:30 PM 64.4 °F 50.0 °F 59% 29.95 in - North 9.2 mph - N/A   Clear
10:00 PM 62.6 °F 50.0 °F 63% 29.95 in - North 12.7 mph - N/A   Clear
10:30 PM 64.4 °F 48.2 °F 56% 29.95 in - North 11.5 mph - N/A   Clear
11:00 PM 62 °F 49 °F 52% 29.96 in - North 8.1 mph - -  
11:00 PM 62.6 °F 48.2 °F 59% 29.95 in - North 8.1 mph - N/A   Clear
11:30 PM 62.6 °F 48.2 °F 59% 29.95 in - North 10.4 mph - N/A   Clear